Regional Weather Roundup
Issued by NWS

Home | Current Version | Previous Version | Graphics & Text | Print | Product List | Glossary On
Versions: 1 2 3 4 5 6 7 8 9 10 11 12 13 14 15 16 17 18 19 20 21 22 23 24 25 26 27 28 29 30 31 32 33 34 35 36 37 38 39 40 41 42 43 44 45 46 47 48 49 50
000
ASUS43 KTOP 101508
RWRKS

WEATHER ROUNDUP FOR KANSAS
NATIONAL WEATHER SERVICE GOODLAND KS
900 AM CST SAT DEC 10 2016

NOTE:  "FAIR" INDICATES FEW OR NO CLOUDS BELOW 12,000 FEET WITH NO
SIGNIFICANT WEATHER AND/OR OBSTRUCTIONS TO VISIBILITY.

KSZ001>006-013>018-027>032-041>047-101600-
NORTHWEST KANSAS

CITY           SKY/WX    TMP DP  RH WIND       PRES   REMARKS
GOODLAND       CLOUDY    20  18  92 S10       29.98F FOG     WCI   9
HAYS           CLOUDY    21  16  81 SE8       30.19F
HILL CITY      CLOUDY    19  14  81 SE6       30.17F
RUSSELL        CLOUDY    23  15  71 SE16      30.19F WCI  10
$$

KSZ061>065-074>080-084>089-101600-
SOUTHWEST KANSAS

CITY           SKY/WX    TMP DP  RH WIND       PRES   REMARKS
DODGE CITY     CLOUDY    23  17  78 S14       30.14R WCI  11
ELKHART          N/A     22  15  75 S9          N/A
GARDEN CITY    CLOUDY    20  17  88 S9        30.10S
GREAT BEND     CLOUDY    23  17  78 SE15      30.20F WCI  10
LIBERAL        CLOUDY    23  18  80 E9        30.09F
PRATT          CLOUDY    25  15  66 S14       30.22F WCI  13
$$

KSZ066>073-081>083-090>101-101600-
SOUTHEAST KANSAS

CITY           SKY/WX    TMP DP  RH WIND       PRES   REMARKS
CHANUTE        CLOUDY    33  21  61 SE8       30.39F
COFFEYVILLE    CLOUDY    36  21  54 S6        30.41F
HUTCHINSON     CLOUDY    38  18  44 SE10      30.27F WCI  31
MEDICINE LODGE   N/A     25  17  72 SE12      30.24F WCI  14
NEWTON         CLOUDY    26  18  71 SE15      30.28F WCI  14
PARSONS        CLOUDY    35  20  54 SE7       30.40F
WICHITA INTL   CLOUDY    29  19  66 SE9       30.30F
WICHITA JABRA  CLOUDY    27  19  72 SE7       30.31F
WICHITA MCCONL CLOUDY    29  19  64 S10       30.30F WCI  20
WINFIELD       CLOUDY    33  20  58 SE9       30.34F
$$

KSZ007>012-019>026-033>040-048>060-102>105-101600-
NORTHEAST KANSAS

CITY           SKY/WX    TMP DP  RH WIND       PRES   REMARKS
CONCORDIA      CLOUDY    25  18  74 SE9       30.29F
EMPORIA        CLOUDY    28  19  69 SE9       30.34F
LAWRENCE       CLOUDY    27  20  75 E6        30.40F
MANHATTAN      CLOUDY    28  17  63 CALM      30.37R
MARYSVILLE     CLOUDY    28  18  64 SE8       30.34F
OLATHE IND     CLOUDY    28  18  66 SE9       30.40F
OLATHE EXE     CLOUDY    27  16  63 SE7       30.40F
SALINA         CLOUDY    27  17  66 SE10      30.30F WCI  17
TOPEKA BILLARD CLOUDY    28  20  71 E5        30.39F
TOPEKA FORBES  CLOUDY    28  19  69 SE6       30.37F
$$



USA.gov is the U.S. government's official web portal to all federal, state and local government web resources and services.